SCP
0 0 0 0 0 0 0 0 0 0 0 0 0 0 0 0 0 0 0 0 0 0 0 0 0 0 0 0 0 0 0 0 0 0 0 0 0 0 0 0 0 0 0
0 0 0 0 0 0 0 0 0 0 0 0 0 0 0 0 0 0 0 0 0 0 0 0 0 0 0 0 0 0 0 0 0 0 0 0 0 0 0 0 0 0 0
0 0 0 0 0 0 0 0 0 0 0 0 0 0 0 0 0 0 0 0 0 0 0 0 0 0 0 0 0 0 0 0 0 0 0 0 0 0 0 0 0 0 0
0 0 0 0 0 0 0 0 0 0 0 0 0 0 0 0 0 0 0 0 0 0 0 0 0 0 0 0 0 0 0 0 0 0 0 0 0 0 0 0 0 0 0
0 0 0 0 0 0 0 0 0 0 0 0 0 0 0 0 0 0 0 0 0 0 0 0 0 0 0 0 0 0 0 0 0 0 0 0 0 0 0 0 0 0 0
0 0 0 0 0 0 0 0 0 0 0 0 0 0 0 0 0 0 0 0 0 0 0 0 0 0 0 0 0 0 0 0 0 0 0 0 0 0 0 0 0 0 0
0 0 0 0 0 0 0 0 0 0 0 0 0 0 0 0 0 0 0 0 0 0 0 0 0 0 0 0 0 0 0 0 0 0 0 0 0 0 0 0 0 0 0
0 0 0 0 0 0 0 0 0 0 0 0 0 0 0 0 0 0 0 0 0 0 0 0 0 0 0 0 0 0 0 0 0 0 0 0 0 0 0 0 0 0 0
0 0 0 0 0 0 0 0 0 0 0 0 0 0 0 0 0 0 0 0 0 0 0 0 0 0 0 0 0 0 0 0 0 0 0 0 0 0 0 0 0 0 0
0 0 0 0 0 0 0 0 0 0 0 0 0 0 0 0 0 0 0 0 0 0 0 0 0 0 0 0 0 0 0 0 0 0 0 0 0 0 0 0 0 0 0
0 0 0 0 0 0 0 0 0 0 0 0 0 0 0 0 0 0 0 0 0 0 0 0 0 0 0 0 0 0 0 0 0 0 0 0 0 0 0 0 0 0 0
0 0 0 0 0 0 0 0 0 0 0 0 0 0 0 0 0 0 0 0 0 0 0 0 0 0 0 0 0 0 0 0 0 0 0 0 0 0 0 0 0 0 0
0 0 0 0 0 0 0 0 0 0 0 0 0 0 0 0 0 0 0 0 0 0 0 0 0 0 0 0 0 0 0 0 0 0 0 0 0 0 0 0 0 0 0
0 0 0 0 0 0 0 0 0 0 0 0 0 0 0 0 0 0 0 0 0 0 0 0 0 0 0 0 0 0 0 0 0 0 0 0 0 0 0 0 0 0 0
0 0 0 0 0 0 0 0 0 0 0 0 0 0 0 0 0 0 0 0 0 0 0 0 0 0 0 0 0 0 0 0 0 0 0 0 0 0 0 0 0 0 0
0 0 0 0 0 0 0 0 0 0 0 0 0 0 0 0 0 0 0 0 0 0 0 0 0 0 0 0 0 0 0 0 0 0 0 0 0 0 0 0 0 0 0
0 0 0 0 0 0 0 0 0 0 0 0 0 0 0 0 0 0 0 0 0 0 0 0 0 0 0 0 0 0 0 0 0 0 0 0 0 0 0 0 0 0 0
0 0 0 0 0 0 0 0 0 0 0 0 0 0 0 0 0 0 0 0 0 0 0 0 0 0 0 0 0 0 0 0 0 0 0 0 0 0 0 0 0 0 0
0 0 0 0 0 0 0 0 0 0 0 0 0 0 0 0 0 0 0 0 0 0 0 0 0 0 0 0 0 0 0 0 0 0 0 0 0 0 0 0 0 0 0
0 0 0 0 0 0 0 0 0 0 0 0 0 0 0 0 0 0 0 0 0 0 0 0 0 0 0 0 0 0 0 0 0 0 0 0 0 0 0 0 0 0 0
0 0 0 0 0 0 0 0 0 0 0 0 0 0 0 0 0 0 0 0 0 0 0 0 0 0 0 0 0 0 0 0 0 0 0 0 0 0 0 0 0 0 0
0 0 0 0 0 0 0 0 0 0 0 0 0 0 0 0 0 0 0 0 0 0 0 0 0 0 0 0 0 0 0 0 0 0 0 0 0 0 0 0 0 0 0
0 0 0 0 0 0 0 0 0 0 0 0 0 0 0 0 0 0 0 0 0 0 0 0 0 0 0 0 0 0 0 0 0 0 0 0 0 0 0 0 0 0 0
0 0 0 0 0 0 0 0 0 0 0 0 0 0 0 0 0 0 0 0 0 0 0 0 0 0 0 0 0 0 0 0 0 0 0 0 0 0 0 0 0 0 0
0 0 0 0 0 0 0 0 0 0 0 0 0 0 0 0 0 0 0 0 0 0 0 0 0 0 0 0 0 0 0 0 0 0 0 0 0 0 0 0 0 0 0
0 0 0 0 0 0 0 0 0 0 0 0 0 0 0 0 0 0 0 0 0 0 0 0 0 0 0 0 0 0 0 0 0 0 0 0 0 0 0 0 0 0 0
Wind_Speed
3 3 2 2 2 1 2 1 1 1 2 2 2 1 1 2 2 2 2 6 7 8 9 9 9 9 9 9 9 9 10 10 9 10 10 11 11 11 11 11 11 11 11
4 3 3 2 2 2 2 1 1 1 1 1 2 2 2 2 3 3 3 4 6 8 9 10 11 12 12 12 12 12 12 12 11 11 11 12 12 13 14 14 15 15 15
5 4 3 3 2 2 2 1 1 1 1 1 2 3 3 3 4 4 4 3 3 6 8 10 11 11 12 13 14 14 14 14 13 13 13 13 13 14 14 15 16 17 17
6 5 4 3 3 3 2 2 1 0 1 1 2 3 3 3 5 4 3 3 3 3 5 8 10 11 12 13 13 14 15 15 15 15 14 14 14 14 15 16 17 17 18
7 5 4 4 4 3 3 2 2 2 2 2 3 3 4 4 4 4 4 4 3 3 3 5 7 8 10 12 13 14 15 15 15 16 16 16 15 15 15 15 16 17 18
8 6 4 5 5 3 3 3 3 2 2 2 2 4 4 4 3 3 3 3 2 2 2 3 3 4 8 10 12 13 14 15 15 16 16 16 17 17 17 17 17 17 18
8 7 5 5 5 5 5 5 3 3 2 1 1 3 3 2 2 2 2 2 2 2 2 3 2 2 3 9 11 12 13 14 15 16 16 17 17 18 18 18 19 19 19
8 7 7 6 6 5 5 5 4 3 2 3 2 1 3 4 3 1 1 1 2 2 2 3 3 3 3 3 7 11 13 14 15 16 17 17 18 18 19 19 20 20 21
9 8 9 7 7 7 6 7 7 6 4 3 3 3 2 2 3 3 2 1 2 2 2 3 3 3 3 3 4 8 12 14 15 16 17 18 18 19 19 20 21 21 22
9 9 9 8 8 6 6 6 6 5 4 3 2 3 3 2 1 4 3 2 2 2 2 3 3 3 3 3 4 9 12 13 15 16 17 18 18 19 20 21 21 22 22
8 8 8 8 7 6 6 6 6 6 5 4 4 3 2 2 2 3 5 3 2 2 2 2 2 2 3 3 3 7 12 14 15 16 17 18 19 20 20 21 22 22 23
5 7 7 7 7 6 6 6 6 6 5 4 3 3 3 3 3 3 4 3 4 3 2 1 1 2 2 3 5 10 12 14 16 16 17 18 18 19 20 21 22 22 23
5 6 6 6 5 5 5 5 5 5 5 4 4 3 2 2 2 2 2 2 3 3 2 1 1 1 2 3 4 10 11 15 16 17 17 18 19 19 20 21 22 22 23
5 5 6 6 5 5 5 5 4 4 4 4 3 3 2 1 1 1 1 1 3 3 2 3 1 2 3 4 7 11 8 15 17 18 18 18 19 20 21 21 22 23 23
5 6 6 6 5 5 5 5 4 4 4 3 3 3 2 1 1 1 1 1 2 3 4 3 2 2 3 3 8 6 6 13 17 18 19 19 20 21 21 22 22 23 23
6 7 6 6 6 5 5 5 5 4 5 4 3 4 3 2 2 2 1 0 1 2 4 2 2 2 4 4 9 6 6 14 15 17 18 19 20 21 21 21 22 22 23
7 8 7 7 7 6 6 6 6 5 6 5 4 5 4 3 3 2 2 2 1 0 4 4 2 3 4 5 6 5 5 6 7 15 18 19 19 20 21 21 22 22 23
7 7 8 8 7 7 6 7 6 6 6 6 5 5 4 3 4 3 2 2 1 1 2 5 4 3 4 5 6 6 6 6 5 14 19 19 18 19 21 21 21 22 22
8 8 8 8 8 7 6 6 6 6 6 6 5 5 4 4 4 2 2 2 1 1 1 3 5 3 4 4 6 6 6 5 6 10 15 15 17 19 21 21 21 20 21
9 9 8 8 8 7 7 7 7 7 7 6 5 5 4 4 3 2 2 1 1 1 2 3 5 5 4 5 4 6 8 5 6 7 9 11 15 18 19 19 20 19 20
8 9 9 8 7 6 6 7 7 7 7 6 5 4 4 3 3 2 1 1 1 1 2 3 4 5 5 6 7 6 9 9 7 4 4 6 8 7 9 13 16 18 19
8 8 8 9 7 5 10 12 9 7 6 6 5 4 3 3 2 3 3 2 2 2 3 3 4 6 8 7 7 8 9 10 8 3 6 9 5 7 6 6 14 19 18
8 8 8 8 8 8 12 12 11 7 6 5 4 3 2 2 1 0 1 3 3 5 6 4 6 7 8 8 9 10 8 9 10 8 8 9 5 6 6 8 17 17 17
8 7 7 7 7 8 11 11 11 7 5 4 3 3 2 1 0 1 1 2 2 3 5 3 4 6 7 7 7 7 9 9 8 5 4 7 6 6 6 6 12 14 15
7 6 6 7 7 7 10 11 10 5 4 4 3 2 2 1 2 4 2 3 4 4 6 8 9 10 13 13 10 5 5 7 8 6 2 4 5 7 6 4 6 13 15
7 7 7 5 6 5 8 10 9 4 4 3 2 1 1 1 3 4 1 2 4 5 4 5 6 8 7 8 10 5 4 5 6 6 3 3 4 5 6 4 3 5 8
Wind_Direction
159 157 153 145 136 118 114 102 82 66 48 33 30 30 351 327 307 300 301 308 311 311 311 315 315 313 309 304 301 298 295 293 290 283 277 274 273 271 271 270 269 268 268
166 166 169 171 171 161 151 143 134 90 19 358 339 332 311 302 293 291 286 298 303 305 307 309 311 314 314 314 309 306 302 299 295 289 284 279 275 270 268 266 265 264 263
174 172 177 186 188 170 156 138 121 66 345 329 311 305 297 290 286 284 285 283 292 300 303 306 309 312 315 315 316 315 314 311 308 303 297 289 282 277 274 270 267 264 261
179 176 184 195 182 165 164 168 172 211 280 288 290 292 288 286 282 279 280 280 282 287 300 306 310 314 316 316 316 317 317 319 319 316 312 306 299 291 285 279 274 271 267
186 184 193 193 174 170 180 183 187 195 244 268 281 288 283 276 279 284 284 282 279 281 285 304 311 312 316 319 319 319 320 321 322 322 321 318 313 309 302 296 291 285 279
192 190 194 190 175 177 190 193 202 204 230 259 287 287 278 276 280 279 281 286 287 291 299 307 312 315 320 324 325 325 325 325 326 327 326 325 323 319 314 307 302 297 292
192 192 192 187 183 194 201 193 188 206 227 192 296 309 304 285 282 289 297 306 326 323 329 323 319 318 318 329 331 333 333 333 332 331 329 328 326 324 321 317 313 309 302
195 194 196 194 193 198 199 194 185 185 200 174 180 299 322 331 332 335 337 340 333 338 346 338 331 322 323 329 335 342 342 339 337 335 333 331 328 325 322 321 318 314 311
197 197 200 197 195 196 203 202 195 192 201 193 190 186 221 269 307 317 328 336 340 345 335 330 329 330 338 340 334 344 346 343 340 338 335 332 329 326 323 320 318 316 314
200 201 202 201 199 199 205 203 197 194 185 197 195 213 217 195 247 307 309 306 318 312 313 317 326 337 348 349 350 351 350 346 342 339 336 333 329 326 324 321 319 316 314
203 203 203 201 201 201 203 195 190 193 193 193 184 178 197 208 212 238 286 305 314 281 291 301 320 339 355 357 347 350 350 346 343 339 335 332 329 326 323 321 319 317 315
199 204 200 198 197 197 197 193 191 192 195 193 187 176 177 182 195 211 255 287 303 299 310 318 341 347 359 360 352 353 348 345 341 337 334 331 328 326 323 321 318 317 315
195 200 190 190 190 190 185 177 177 181 181 181 185 185 188 196 175 184 235 275 288 297 308 325 331 2 9 4 349 353 346 342 338 336 334 332 329 327 324 322 319 318 316
190 181 177 176 175 172 168 162 160 161 155 162 164 160 153 150 151 168 185 225 288 295 293 288 326 17 10 2 348 354 342 340 337 337 335 332 329 327 324 322 320 319 317
164 159 154 153 153 150 149 144 144 145 140 142 144 140 134 124 114 116 148 179 226 284 294 294 313 357 5 356 347 343 333 333 336 334 332 330 328 326 324 323 321 319 318
153 148 144 142 136 130 130 128 125 126 121 116 117 113 102 93 93 86 96 100 205 242 272 282 291 335 347 343 339 334 323 331 331 331 329 328 327 326 326 325 324 323 321
149 145 143 138 133 127 126 124 119 120 118 110 103 106 99 90 87 72 65 62 45 324 272 292 307 336 331 326 324 322 318 315 318 325 326 326 326 327 327 325 324 323 321
138 135 134 129 125 123 122 124 123 120 121 116 108 103 97 91 83 71 66 60 41 9 300 298 307 319 314 315 313 315 317 317 308 319 323 324 326 327 326 324 324 323 322
128 125 127 127 125 121 117 114 117 114 110 108 107 106 104 100 90 75 70 60 29 356 324 296 302 299 299 308 317 312 305 303 303 313 319 322 324 325 324 322 323 323 322
129 125 120 120 119 116 114 114 113 110 105 100 98 101 102 102 105 98 83 57 6 332 309 299 298 303 302 308 316 322 323 319 311 308 313 320 319 321 320 321 321 321 321
121 122 120 115 112 114 119 121 117 115 112 106 98 94 96 96 91 89 86 31 347 324 317 312 310 313 316 328 330 324 318 318 308 294 312 312 311 308 311 315 318 321 323
119 120 122 123 118 116 124 121 119 116 115 114 111 102 97 89 75 55 31 3 342 321 311 304 306 310 314 317 317 317 317 321 318 318 321 309 301 301 304 304 318 325 327
124 122 121 121 120 124 124 120 116 117 117 117 119 118 109 95 94 78 337 336 322 312 306 297 295 300 305 310 310 310 309 306 301 307 311 301 305 302 307 313 322 328 334
129 125 123 121 118 124 126 124 121 114 113 115 119 124 128 131 259 308 291 300 291 292 302 297 275 285 291 295 293 298 302 300 289 281 286 294 307 306 310 308 321 336 340
126 122 125 126 124 128 132 131 125 120 120 122 126 130 143 184 299 332 337 312 307 298 310 312 308 309 312 314 316 314 312 312 308 305 302 290 304 312 305 299 319 336 341
127 124 122 121 125 131 141 138 131 127 131 133 135 147 190 247 305 325 325 302 301 304 311 316 315 316 315 314 319 312 301 300 302 301 320 316 302 319 309 299 314 328 334